Reflectivity
-20 -20 -20 -20 -20 -20 -20 -20 -20 -20 -20 -20 -20 -20 -20 -20 -20 -20 -20 -20 -20 -20 -17 -20 -11 -3 -20 -20 -20 -20 -20 -20 -20 -20 -20 -20 -20 -20 -20 -20 -20 -20 -20 -20
-20 -20 -20 -20 -20 -20 -20 -20 -20 -20 -20 -20 -20 -20 -20 -20 -20 -20 -20 -20 -20 -20 -20 -19 5 -20 9 -20 -20 -20 -20 -20 -20 -20 -20 -20 -20 -20 -20 -20 -20 -20 -20 -20
-20 -20 -20 -20 -20 -20 -20 -20 -20 -20 -20 -20 -20 -20 -20 -20 -20 -20 -20 -20 -20 -20 -20 -20 -20 -20 -12 -20 -20 -20 -20 -20 -20 -20 -20 -20 -20 -20 -20 -20 -20 -20 -20 -20
-20 -20 -20 -20 -20 -20 -20 -20 -20 -20 -20 -20 -20 -20 -20 -20 -20 -20 -20 -20 -20 -20 -20 -20 -20 -20 -7 -20 -20 -20 -20 -20 -20 -20 -20 -20 -20 -20 -20 -20 -20 -20 -20 -20
-20 -20 -20 -20 -20 -20 -20 -20 -20 -20 -20 -20 -20 -20 -20 -20 -20 -20 -20 -20 -20 -20 -20 -20 -20 -20 -10 -2 -17 -20 -20 -20 -20 -20 -20 -20 -20 13 -12 -20 -20 -20 -20 -20
-20 -20 -20 -20 -20 -20 -20 -20 -20 -20 -20 -20 -20 -20 -20 -20 -20 -20 -20 -20 -20 -20 -20 -20 -20 -20 -20 -20 -20 -20 -20 -20 -20 -8 -15 -20 -20 -20 -20 -20 -20 -20 -20 -20
-20 -20 -20 -20 -20 -20 -20 -20 -20 -20 -20 -20 -20 -20 -20 -20 -20 -20 -20 -20 -20 -20 -20 -20 -20 -20 -20 -20 -20 -20 -20 -20 -20 -20 -20 -20 -20 -20 -5 -20 -20 -20 -20 -20
-20 -20 -20 -20 -20 -20 -20 -20 -20 -20 -20 -20 -20 -20 -20 -20 -20 -20 -20 -20 -20 -20 -20 -20 -20 -20 17 2 -9 -20 -20 -20 -20 -20 27 13 -9 -8 -2 -20 -20 -20 -20 -20
-20 -20 -20 -20 -20 -20 -20 -20 -20 -20 -20 -20 -20 -20 -20 -20 -20 -20 -20 -20 -20 -20 -20 -20 -20 -20 -20 -20 10 -20 -20 27 30 30 21 29 31 25 13 3 -20 -20 -20 -20
-20 -20 -20 -20 -20 -20 -20 -20 -20 -20 -20 -20 -20 -20 -20 -20 -20 -20 -20 -20 -20 -20 -20 -20 -20 -20 -20 -20 -20 -20 -20 -2 26 28 27 25 -20 6 26 1 -20 -20 -20 -20
-20 -20 -20 -20 -20 -20 -20 -20 -20 -20 -20 -20 -20 -20 -20 -20 -20 -20 -20 -20 -20 -20 -20 -20 -20 -20 -20 -20 -20 28 29 -6 29 27 25 19 -1 12 24 -5 -20 -20 -20 -20
-20 -20 -20 -20 -20 -20 -20 -20 -20 -20 -20 -20 -20 -20 -20 -20 -20 -20 -20 -20 -20 -20 -20 -20 -20 -20 -20 -20 -20 -20 2 26 26 24 21 26 20 25 -13 -20 -20 -20 -20 -20
-20 -20 -20 -20 -20 -20 -20 -20 -20 -20 -20 -20 -20 -20 -20 -20 -20 -20 -20 -20 -20 -20 -20 -20 -20 -20 -20 -20 -20 -20 0 16 26 23 20 3 -7 13 13 -2 -20 -20 -20 -20
-20 -20 -20 -20 -20 -20 -20 -20 -20 -20 -20 -20 -20 -20 -20 -20 -20 -20 -20 -20 -20 -20 -20 -20 -20 -20 -20 -20 -20 -20 -16 20 26 30 27 23 11 -8 -20 -20 -20 -20 -20 -20
-20 -20 -20 -20 -20 -20 -20 -20 -20 -20 -20 -20 -20 -20 -20 -20 -20 -20 -20 -20 -20 -20 -20 -20 -20 -20 -20 -20 -20 -20 -20 -19 -20 28 23 21 18 2 -20 -20 -20 -20 -20 -20
-20 -20 -20 -20 -20 -20 -20 -20 -20 -20 -20 -20 -20 -20 -20 -20 -20 -20 -20 -20 -20 -20 -20 -20 -20 -20 -20 -20 -20 -20 -20 -20 -20 -20 -4 18 20 -14 -20 -20 -20 -20 -20 -20
-18 -20 -20 -20 -20 -20 -20 -20 -20 -20 -20 -20 -20 -20 -20 -20 -20 -20 -20 -20 -20 -20 -20 -20 -20 -20 -20 -20 -20 -20 -20 -20 -20 -20 -20 8 -20 3 -20 23 -20 -20 -20 -20
-20 -20 -20 -20 -20 -20 -20 -20 -20 -20 -20 -20 -20 -20 -20 -20 -20 -20 -20 -20 -20 -20 -20 -20 -20 -20 -20 -20 -20 -20 -20 -20 -20 -20 -20 -20 -16 -14 -17 -20 22 21 7 10
-20 -20 -20 -20 -20 -20 -20 -20 -20 -20 -20 -16 -20 -20 -20 -20 -20 -20 -20 -20 -20 -20 -20 -20 -20 -20 -20 -20 -20 -20 -20 -20 -20 -20 -20 -20 -20 -19 -20 -11 -9 4 14 -7
-20 -20 -20 -19 -8 -20 -20 -20 -20 -20 -18 -20 -20 -20 -20 -20 -20 -20 -20 -20 -20 -20 -20 -20 -20 -20 -20 -20 -20 -20 -20 -20 -20 -18 -20 -20 -12 -10 19 16 22 22 19 11
-20 -19 -20 -10 6 -9 -20 -20 -20 -15 -6 -20 -20 -20 -20 -20 -20 -20 -20 -20 -20 -20 -20 -20 -20 -20 -20 -20 -20 -20 -20 -20 -20 -20 -20 -19 -12 -2 21 35 34 -2 8 0
-20 -20 -20 -20 -20 -20 -20 -20 -20 -20 -20 -20 -20 -20 -20 -20 -20 -20 -20 -20 -20 -20 -20 -20 -20 -20 -20 -20 -20 -20 -20 -20 -20 -20 12 -20 9 8 29 12 -17 -14 20 18
-20 -20 -20 -20 -20 -20 -20 -20 -20 -20 -20 -20 -20 -20 -20 -20 -20 -20 -20 -20 -20 -20 -20 -20 -20 -20 -19 -12 -20 -20 -20 -20 -20 -20 -19 15 -11 10 11 -20 -20 -20 1 -5
-20 -20 -16 -15 -20 -20 -20 -20 -20 -20 -20 -20 -20 -20 -20 -20 -20 -20 -20 -20 -20 -20 -20 -20 -20 -20 -20 2 -1 -20 -20 -20 -20 11 -18 -2 2 34 17 -14 -20 -20 -20 -20
-20 -15 -20 -20 -20 -20 -20 -20 -20 -20 -20 -20 -20 -20 -20 -20 -20 -20 -20 -20 -20 -20 -20 -20 -20 -20 -20 -20 -5 -1 -2 -20 11 5 19 20 26 30 23 1 -3 8 12 3
-14 -18 2 -20 -20 -20 -20 -20 -20 -20 -20 -20 -20 -20 -20 -20 -20 -20 -20 -20 -20 -20 -20 -20 -20 -20 -20 -3 -4 3 10 1 -13 -16 11 19 34 29 12 5 -1 -20 -20 -20
Wind_Speed
2 4 9 13 6 5 6 3 1 3 5 1 4 6 9 6 5 6 9 10 13 15 12 11 12 12 8 11 12 12 13 11 10 6 5 3 4 2 3 3 5 5 5 5
3 9 9 4 5 5 3 3 4 5 6 5 5 10 10 7 11 16 15 12 9 8 9 9 11 12 14 14 14 13 12 12 9 7 3 4 4 2 3 3 4 4 5 5
8 4 9 8 5 7 4 6 5 7 2 2 5 6 6 5 4 7 7 4 5 9 9 10 12 14 14 16 16 15 14 14 9 9 7 5 5 4 3 2 3 2 5 5
6 6 6 3 4 7 4 10 7 5 4 4 4 6 6 5 9 8 13 8 9 9 8 10 13 14 17 16 13 15 15 15 10 11 6 12 5 5 3 3 3 4 5 5
8 6 6 5 8 8 8 7 9 5 5 2 1 3 8 0 7 11 13 9 11 13 17 18 18 17 12 12 13 12 13 13 12 11 9 6 6 4 4 5 7 5 4 5
8 2 7 10 6 10 3 6 6 5 4 1 4 5 6 6 9 7 14 8 11 12 14 14 12 11 11 9 10 12 14 12 12 12 11 11 12 10 9 7 6 5 3 4
1 3 2 3 4 2 5 6 2 2 1 5 3 4 7 6 7 8 11 13 8 11 13 13 15 15 16 16 15 13 16 16 15 14 13 12 13 13 13 11 8 8 4 3
6 2 8 3 8 8 7 9 7 7 5 5 1 5 5 4 6 4 7 7 4 7 8 11 13 12 13 13 15 15 18 19 17 14 11 9 11 8 8 9 8 7 5 6
3 3 5 2 1 9 5 5 6 7 2 3 4 6 4 14 17 14 14 12 7 4 5 12 14 15 15 15 20 22 18 11 11 12 11 10 10 11 10 10 9 7 7 6
4 3 3 5 1 4 6 5 5 2 7 5 2 3 3 9 8 11 14 11 10 9 8 8 9 11 12 10 11 11 11 12 12 10 10 9 11 11 10 10 10 10 8 8
6 2 5 3 7 3 6 3 4 6 4 7 5 2 2 4 6 7 7 8 9 9 12 11 11 11 11 10 11 11 11 11 12 12 12 12 10 11 10 9 9 10 9 10
4 3 3 1 2 5 6 3 4 5 5 1 5 4 1 0 4 5 8 11 10 10 13 16 9 8 11 12 14 15 13 12 13 13 12 12 11 10 11 10 10 10 11 10
7 3 4 2 1 5 7 5 4 1 1 3 6 5 2 3 6 8 10 12 13 16 19 19 14 1 6 9 10 11 12 13 12 14 14 13 13 13 12 11 11 10 11 10
5 2 3 1 3 3 4 6 7 4 2 1 1 7 5 4 6 10 13 10 12 16 18 17 17 12 7 3 3 6 8 10 12 12 12 13 13 13 13 12 13 12 11 12
5 3 5 7 5 4 5 8 5 3 4 2 3 3 5 7 7 8 8 12 15 17 19 18 16 15 8 4 2 4 5 9 11 13 13 13 13 13 12 12 13 12 11 10
3 3 4 5 10 5 7 5 5 5 5 7 6 6 6 6 7 10 13 14 15 14 14 16 17 16 13 8 3 4 6 10 13 13 14 13 13 13 14 13 12 12 11 10
2 2 1 3 5 7 8 4 8 4 2 2 4 2 5 6 9 11 10 11 14 15 15 16 15 15 14 11 9 7 9 8 11 12 13 14 14 14 12 14 13 11 12 11
4 3 3 3 1 1 2 6 1 10 6 6 7 6 6 2 3 9 8 8 10 13 14 14 14 15 15 14 14 9 8 9 9 9 11 13 16 15 14 14 14 13 11 12
11 8 3 3 5 7 3 5 4 4 3 6 1 4 6 10 3 1 8 6 5 8 9 10 11 13 17 19 20 13 10 10 10 11 10 12 13 14 15 15 15 12 12 10
5 5 5 3 4 6 1 5 3 3 5 4 4 5 4 7 4 3 6 6 5 5 6 9 11 12 18 23 21 8 10 10 12 13 13 14 12 14 17 15 17 14 11 12
3 3 8 6 4 5 1 6 4 7 3 3 2 7 4 1 3 4 5 5 5 4 6 8 9 10 12 17 21 6 3 8 8 8 11 13 13 13 12 13 13 13 13 10
7 5 3 5 5 9 4 0 1 2 3 4 3 4 4 4 4 6 6 5 6 6 6 6 7 10 10 11 14 15 10 5 5 7 11 12 14 12 12 15 12 14 14 14
10 7 5 8 6 2 3 4 6 5 5 5 4 7 7 6 6 6 7 7 5 7 5 5 5 8 9 9 9 11 12 14 6 9 12 13 13 13 13 15 14 12 12 12
11 5 10 9 11 12 12 12 6 7 7 7 7 8 4 7 8 7 7 8 8 7 6 4 5 8 8 7 8 7 11 14 9 11 11 10 12 12 12 11 11 12 12 11
9 6 13 21 17 9 11 10 13 10 7 7 8 9 10 9 12 10 9 8 10 9 6 5 6 7 7 6 9 7 9 14 7 10 10 11 10 14 13 13 13 13 14 16
10 18 14 18 7 12 17 16 15 14 9 11 12 14 12 11 12 9 8 10 10 10 7 6 6 9 9 6 7 8 7 9 10 6 8 9 9 11 11 11 8 4 11 16
Wind_Direction
183 136 195 203 164 154 141 161 153 278 269 339 237 222 263 217 225 195 193 191 193 195 187 178 162 155 147 150 144 149 141 147 137 135 131 118 133 120 79 80 94 104 107 103
67 228 214 136 155 145 125 155 256 276 265 153 259 259 264 178 222 208 200 202 183 157 165 161 157 154 167 166 161 159 155 154 159 150 133 127 132 95 100 91 84 107 115 115
168 228 161 152 151 143 162 156 207 208 7 225 125 302 276 234 248 229 245 203 175 173 177 170 170 171 166 178 174 165 163 163 158 136 122 99 87 71 82 78 88 70 105 100
215 224 128 138 164 142 183 206 195 216 113 214 148 256 269 256 243 205 226 199 186 170 163 172 179 186 188 187 175 170 164 162 156 153 145 164 149 150 166 139 119 102 98 100
235 177 162 171 194 161 214 150 191 193 178 139 258 77 276 153 262 246 226 200 199 190 183 185 192 194 192 178 178 171 163 167 159 160 160 153 125 111 120 126 120 114 96 99
208 207 149 198 166 173 164 101 52 53 97 276 200 150 270 204 207 253 247 214 188 191 194 195 184 176 180 175 177 169 169 171 166 170 164 165 154 144 143 147 137 135 117 105
350 226 223 143 116 177 107 84 27 14 1 205 229 154 246 243 239 219 235 241 200 191 188 186 182 187 186 184 181 175 177 180 177 174 170 169 164 161 160 156 149 143 135 117
174 222 161 189 179 175 184 159 157 180 184 199 162 234 242 314 15 310 298 260 201 196 187 193 201 207 206 197 188 185 190 187 177 176 172 177 162 162 160 149 148 140 147 142
7 266 323 117 177 144 202 168 175 99 32 97 213 319 45 27 28 28 30 32 355 285 226 207 191 189 195 189 192 195 191 182 184 170 163 167 167 163 158 148 142 143 133 134
345 312 325 293 6 33 147 167 103 9 149 196 335 56 332 355 19 12 10 4 354 352 337 261 221 211 202 199 192 180 183 173 170 167 166 164 160 160 155 142 143 141 137 126
349 12 299 5 16 332 352 53 58 117 148 172 135 247 7 346 8 11 359 358 346 340 330 305 237 207 194 180 181 184 187 176 171 165 165 161 159 146 149 142 144 145 135 139
309 314 298 98 355 54 68 43 40 147 203 160 136 213 330 66 39 18 2 4 3 7 353 341 286 177 182 181 181 182 172 172 170 165 166 162 155 150 150 151 150 148 145 145
326 7 327 96 349 25 41 14 12 276 34 177 139 182 204 310 25 9 7 5 5 9 10 7 351 258 186 185 180 181 180 174 170 168 163 155 158 160 157 151 145 146 144 145
6 11 342 300 37 12 330 358 5 7 74 75 128 131 1 33 33 2 3 11 10 17 12 10 12 3 7 32 165 174 175 173 174 177 166 161 163 161 157 154 150 151 152 150
29 327 345 307 279 289 269 287 291 265 269 237 125 47 80 40 41 15 1 8 21 16 9 9 7 3 360 22 126 147 151 165 167 174 174 175 162 156 151 154 152 149 153 158
355 312 10 299 321 0 292 249 272 251 263 274 265 276 29 35 48 34 23 14 12 14 11 0 359 357 350 333 263 172 173 175 172 178 176 171 162 158 158 152 150 147 147 144
253 239 83 251 7 329 311 294 211 183 103 339 233 67 18 28 43 31 17 19 12 1 360 359 353 342 337 323 302 217 192 180 180 178 167 164 158 160 163 146 146 156 153 147
205 190 216 263 23 295 278 12 302 103 87 69 68 22 354 337 169 73 34 17 9 1 353 351 348 340 332 317 299 232 188 181 175 178 168 165 163 160 155 155 153 156 161 156
208 202 222 172 212 296 111 10 15 17 116 22 78 7 325 326 184 16 20 3 5 350 343 340 339 343 337 333 317 219 188 178 171 166 181 176 166 157 158 161 157 159 159 161
143 200 182 196 204 229 98 306 267 169 187 353 13 344 333 343 78 273 328 335 325 332 333 337 335 347 354 347 337 205 189 183 188 190 177 169 173 169 168 170 164 162 172 165
158 171 208 228 258 265 213 286 304 192 132 253 215 285 323 49 231 243 307 312 307 297 325 328 338 353 360 353 357 344 216 214 208 180 173 168 172 172 183 170 167 163 152 152
215 176 192 210 215 251 207 14 39 170 203 228 302 266 263 248 282 287 291 290 308 299 311 325 336 349 355 8 1 356 355 275 188 169 176 173 172 170 175 173 171 162 156 151
244 209 196 184 208 145 182 211 210 181 219 265 274 262 236 248 262 273 281 299 297 289 281 298 318 333 349 354 10 347 338 340 205 185 187 181 177 182 174 174 170 162 168 159
235 181 231 247 236 250 260 265 231 211 232 248 265 267 250 263 255 253 262 278 295 290 261 265 296 316 327 339 336 338 328 327 266 197 188 179 174 183 180 179 177 170 173 169
231 224 250 256 252 265 252 231 230 243 229 246 246 247 252 248 247 250 263 262 277 274 253 249 257 277 285 315 310 326 335 329 263 201 191 187 191 191 184 190 183 185 189 181
234 248 239 251 219 220 243 247 237 237 220 233 246 259 259 262 256 234 258 270 265 266 246 264 272 258 261 263 291 315 338 346 341 296 210 193 194 195 187 182 184 218 183 177